{"data":{"norad_id":55319,"epoch":"2026-05-25T03:10:03.262080Z","epoch_age_seconds":63410,"freshness":"FRESH","line1":"1 55319U 23010BC  26145.13198220  .00000278  00000+0  31094-4 0  9990","line2":"2 55319  69.9991 171.6761 0003767 266.1028  93.9701 14.98330205186093","mean_motion":14.98330205,"eccentricity":0.0003767,"inclination_deg":69.9991,"raan_deg":171.6761,"arg_perigee_deg":266.1028,"mean_anomaly_deg":93.9701,"bstar":3.1094e-5,"rev_number":18609,"period_min":96.106985976432,"perigee_km":569.43711957569,"apogee_km":574.67339442211,"semimajor_km":6950.1922569989,"source":"CELESTRAK","updated_at":"2026-05-25T13:38:17.759134Z"}}